Regional Weather Roundup
Issued by NWS

Home | Current Version | Previous Version | Text Only | Print | Product List | Glossary On
Versions: 1 2 3 4 5 6 7 8 9 10 11 12 13 14 15 16 17 18 19 20 21 22 23 24 25 26 27 28 29 30 31 32 33 34 35 36 37 38 39 40 41 42 43 44 45 46 47 48 49 50
000
ASUS43 KTOP 221159
RWRKS

WEATHER ROUNDUP FOR KANSAS
NATIONAL WEATHER SERVICE GOODLAND KS
700 AM CDT TUE JUL 22 2014

NOTE:  "FAIR" INDICATES FEW OR NO CLOUDS BELOW 12,000 FEET WITH NO
SIGNIFICANT WEATHER AND/OR OBSTRUCTIONS TO VISIBILITY.

KSZ001>006-013>018-027>032-041>047-221300-
NORTHWEST KANSAS

CITY           SKY/WX    TMP DP  RH WIND       PRES   REMARKS
GOODLAND       CLEAR     67  60  78 SW3       30.10S
6HR MIN TEMP:  66; 6HR MAX TEMP:  72;

HAYS           PTCLDY    66  57  72 SE8       30.07R
HILL CITY      CLEAR     66  61  84 S3        30.07R
6HR MIN TEMP:  65; 6HR MAX TEMP:  80;

RUSSELL        PTCLDY    70  67  90 S7        30.05R
6HR MIN TEMP:  69; 6HR MAX TEMP:  79;

$$

KSZ061>065-074>080-084>089-221300-
SOUTHWEST KANSAS

CITY           SKY/WX    TMP DP  RH WIND       PRES   REMARKS
DODGE CITY     CLEAR     69  64  84 S6        30.10R
6HR MIN TEMP:  69; 6HR MAX TEMP:  79;

ELKHART          N/A     67  63  87 S7          N/A
GARDEN CITY    PTCLDY    67  63  87 CALM      30.10R
6HR MIN TEMP:  66; 6HR MAX TEMP:  79;

GREAT BEND     PTCLDY    70  64  83 S5        30.06R
LIBERAL        PTCLDY    70  64  83 CALM      30.11S
$$

KSZ066>073-081>083-090>101-221300-
SOUTHEAST KANSAS

CITY           SKY/WX    TMP DP  RH WIND       PRES   REMARKS
CHANUTE        CLEAR     73  71  93 S6        30.07R FOG
6HR MIN TEMP:  73; 6HR MAX TEMP:  76;

COFFEYVILLE    PTCLDY    72  70  93 S5        30.07R
6HR MIN TEMP:  72; 6HR MAX TEMP:  77;

HUTCHINSON     PTCLDY    74  70  87 SE3       30.06R
6HR MIN TEMP:  73; 6HR MAX TEMP:  82;

MEDICINE LODGE   N/A     72  70  93 CALM      30.07R
NEWTON         PTCLDY    75  68  78 S8        30.09R
PARSONS        PTCLDY    72  69  90 S3        30.08R
6HR MIN TEMP:  72; 6HR MAX TEMP:  77;

WICHITA INTL   MOCLDY    75  73  93 S7        30.06R FOG
6HR MIN TEMP:  75; 6HR MAX TEMP:  81;

WICHITA JABRA  MOCLDY    76  74  93 S9        30.06R
6HR MIN TEMP:  75; 6HR MAX TEMP:  82;

WINFIELD       PTCLDY    73  73 100 CALM      30.09R FOG
6HR MIN TEMP:  73; 6HR MAX TEMP:  80;

$$

KSZ007>012-019>026-033>040-048>060-102>105-221300-
NORTHEAST KANSAS

CITY           SKY/WX    TMP DP  RH WIND       PRES   REMARKS
CONCORDIA      CLEAR     76  70  82 SW9       30.01R
6HR MIN TEMP:  76; 6HR MAX TEMP:  83;

EMPORIA        PTCLDY    74  73  97 S10       30.04R FOG
6HR MIN TEMP:  73; 6HR MAX TEMP:  77;

LAWRENCE       CLEAR     77  73  87 SE5       30.03R FOG
6HR MIN TEMP:  75; 6HR MAX TEMP:  82;

MANHATTAN      CLEAR     75  73  93 SW5       30.00R FOG
6HR MIN TEMP:  75; 6HR MAX TEMP:  82;

OLATHE IND     CLEAR     74  72  93 S7        30.05R FOG
6HR MIN TEMP:  74; 6HR MAX TEMP:  79;

OLATHE EXE     CLEAR     73  72  96 S8        30.04R FOG
6HR MIN TEMP:  73; 6HR MAX TEMP:  78;

SALINA         CLEAR     75  71  87 S7        30.02R
6HR MIN TEMP:  75; 6HR MAX TEMP:  86;

TOPEKA BILLARD CLEAR     79  75  87 S8        30.01R
6HR MIN TEMP:  79; 6HR MAX TEMP:  83;

TOPEKA FORBES  CLEAR     77  74  90 S9        30.02R FOG
6HR MIN TEMP:  77; 6HR MAX TEMP:  80;

$$


USA.gov is the U.S. government's official web portal to all federal, state and local government web resources and services.